Location: ????????
(38.4362°N, 22.8767°E)
Time: 03:53:32
(UTC+00:00)

Meteor 2-12 Rocket - Pass Details

Date: 23 April 2024
Orbit: 936 x 956 km, 82.5° (Epoch: 20 May)

Event Time Altitude Azimuth Distance (km) Brightness Sun altitude
Exits shadow 01:32:14 47° 209° (SSW) 1,229 4.6 -23.0°
Maximum altitude 01:34:02 72° 278° (W) 985 4.3 -22.8°
Drops below altitude 10° 01:40:07 10° 3° (N) 2,663 7.3 -21.8°
Sets 01:42:38 0° 6° (N) 3,614 8.1 -21.5°
